Location: Unspecified
(58.7730°N, 5.8460°E)
Time: 09:05:06
(UTC+02:00)

Okean 3 - Visible Passes

Search period start: 21 October 2014 00:00
Search period end: 30 October 2014 23:00
Orbit: 584 x 608 km, 82.5° (Epoch: 20 October)

Date Brightness Start Highest point End Pass type
(mag) Time Alt. Az. Time Alt. Az. Time Alt. Az.
24 Oct 6.5 06:45:53 10° NNE 06:47:27 12° NE 06:49:00 10° ENE visible
25 Oct 6.3 06:55:25 10° NNE 06:57:54 15° NE 07:00:23 10° E visible
26 Oct 6.2 06:05:12 10° N 06:08:19 19° NE 06:11:23 10° ESE visible
27 Oct 5.8 06:15:07 10° N 06:18:40 24° ENE 06:22:11 10° ESE visible
28 Oct 5.4 06:25:06 10° N 06:28:59 31° ENE 06:32:49 10° SE visible
29 Oct 6.7 04:59:56 10° NE 05:00:36 10° NE 05:01:17 10° NE visible
29 Oct 4.8 06:35:07 10° N 06:39:15 42° ENE 06:43:18 10° SE visible
30 Oct 6.5 05:08:59 10° NNE 05:11:04 13° NE 05:13:08 10° ENE visible
30 Oct 4.2 06:45:11 10° N 06:49:27 58° ENE 06:53:39 10° SSE visible
